This is the latest recevied weather packets stored in our database for station/object K7D3. If no packets are shown the sender has not sent any weather packets the latest 10 day(s).
| Time | Temp. | Humidity | Pressure | Rain* | Wind** | Luminosity | Snow |
|---|---|---|---|---|---|---|---|
| 1777855216 | 13.33° C | 53% | - | 0 mm | 4.47 m/s, 238° | - | - |
| 1777854737 | 13.33° C | 53% | - | 0 mm | 4.02 m/s, 263° | - | - |
| 1777854254 | 13.33° C | 53% | - | 0 mm | 4.92 m/s, 285° | - | - |
| 1777853776 | 13.89° C | 53% | - | 0 mm | 4.02 m/s, 256° | - | - |
| 1777853297 | 13.89° C | 51% | - | 0 mm | 5.81 m/s, 245° | - | - |
| 1777852815 | 13.89° C | 51% | - | 0 mm | 3.13 m/s, 295° | - | - |
| 1777852336 | 13.89° C | 50% | - | 0 mm | 4.92 m/s, 285° | - | - |
| 1777851857 | 13.89° C | 50% | - | 0 mm | 7.15 m/s, 285° | - | - |
| 1777851375 | 13.89° C | 49% | - | 0 mm | 5.36 m/s, 231° | - | - |
| 1777850897 | 13.89° C | 50% | - | 0 mm | 5.36 m/s, 255° | - | - |
| 1777850418 | 13.89° C | 49% | - | 0 mm | 5.36 m/s, 260° | - | - |
| 1777849936 | 13.89° C | 49% | - | 0 mm | 5.81 m/s, 274° | - | - |
| 1777849457 | 13.89° C | 48% | - | 0 mm | 4.92 m/s, 264° | - | - |
| 1777848979 | 13.89° C | 48% | - | 0 mm | 6.26 m/s, 256° | - | - |
| 1777848497 | 13.33° C | 47% | - | 0 mm | 8.94 m/s, 270° | - | - |
| 1777848019 | 13.89° C | 47% | - | 0 mm | 7.6 m/s, 259° | - | - |
| 1777847540 | 13.33° C | 47% | - | 0 mm | 6.26 m/s, 252° | - | - |
| 1777847058 | 13.89° C | 48% | - | 0 mm | 4.92 m/s, 273° | - | - |
| 1777846579 | 13.89° C | 47% | - | 0 mm | 7.6 m/s, 250° | - | - |
| 1777846101 | 13.89° C | 47% | - | 0 mm | 4.92 m/s, 250° | - | - |
| 1777845619 | 13.89° C | 48% | - | 0 mm | 6.26 m/s, 233° | - | - |
| 1777845140 | 13.33° C | 47% | - | 0 mm | 8.05 m/s, 221° | - | - |
| 1777844662 | 14.44° C | 46% | - | 0 mm | 7.6 m/s, 253° | - | - |
| 1777844180 | 14.44° C | 47% | - | 0 mm | 5.81 m/s, 257° | - | - |
| 1777843701 | 13.89° C | 48% | - | 0 mm | 6.26 m/s, 263° | - | - |
* Rain latest hour (hover to see other rain measurements)
** Current wind speed in m/s (hover to see current wind gust speed)